Simultaneous Nadir Overpasses (SNOs) Predictions

Prediction of SNOs between GOES-17 and NPP Satellite Orbit:

Table of predicted SNOs for the next 14.0 days since TLE Epoch: 3/9/2024
Index Date Time (GOES-17) GOES-17 Lat,Lon NPP Lat,Lon Distance(km) Time Diff (sec)
1 03/09/2024 08:11:50 -0.01,-104.70 -0.61,-102.03 304.01 80
2 03/10/2024 20:33:48 0.01,-104.69 -0.57,-107.35 303.22 80
3 03/11/2024 20:17:45 0.01,-104.69 0.44,-102.82 212.96 80
4 03/13/2024 08:39:34 -0.01,-104.72 0.76,-108.10 385.99 80
5 03/14/2024 08:18:11 -0.00,-104.72 -0.25,-103.58 130.00 80
6 03/15/2024 20:40:09 0.00,-104.70 -0.92,-108.89 477.50 80
7 03/16/2024 20:24:06 0.01,-104.70 0.10,-104.37 38.52 80
8 03/19/2024 08:27:11 -0.01,-104.73 0.07,-105.12 44.51 80
9 03/20/2024 08:05:48 -0.01,-104.73 -0.95,-100.60 471.58 80
10 03/21/2024 20:27:45 0.01,-104.72 -0.27,-105.90 135.59 80
11 03/22/2024 20:11:42 0.01,-104.72 0.75,-101.38 380.92 80
